"TOA5","AWS1","CR1000","7964","CR1000.Std.14","CPU:AWS1_114.CR1","64363","TBL110"
"TIMESTAMP","RECORD","Wind_spd_WVc(1)","Wind_spd_WVc(2)","Air_Temp_Avg","Humidity_Avg","SW_upper_Wm2_Avg","Rain_Tot","Press_Avg","Issui_Tot","Depth_cm","SR50A_Raw","Quality","Ground_Temp_Avg(1)","Ground_Temp_Avg(2)","SW_lower_Wm2_Avg","Albedo_Avg","SWC_per(1)","SWC_per(2)","Period(1)","Period(2)"
"TS","RN","","","","","","","","","","","","","","","","","","",""
"","","WVc","WVc","Avg","Avg","Avg","Tot","Avg","Tot","Smp","Smp","Smp","Avg","Avg","Avg","Avg","Smp","Smp","Smp","Smp"
"2016-04-13 00:00:00",230893,0.833,144.7,5.871,71.27,0.1022224,0,868.0082,0,-4.222,3.187,209,6.81,6.216,0.5420899,0.812,50.66,58.73,33.46,35.39
"2016-04-13 00:10:00",230894,0.682,158.8,6.216,70.38,0,0,868.1557,0,-4.55,3.189,198,6.73,6.219,0.3639205,0,50.66,58.73,33.46,35.39
"2016-04-13 00:20:00",230895,0.251,131.4,6.307,69.81,0,0,868.0714,0,-4.877,3.192,188,6.656,6.273,0.05686258,0,50.66,58.73,33.46,35.39
"2016-04-13 00:30:00",230896,0.253,108.1,6.202,69.58,0,0,867.8692,0,-4.728,3.192,194,6.659,6.296,0,0,50.66,58.73,33.46,35.39
"2016-04-13 00:40:00",230897,0.296,309.1,5.936,70.19,0,0,867.7659,0,-4.981,3.195,192,6.722,6.292,0,0,50.66,58.73,33.46,35.39
"2016-04-13 00:50:00",230898,0.35,62.06,6.094,70.16,0,0,867.7597,0,-5.384,3.198,183,6.662,6.295,0.1023526,0,50.72,58.73,33.47,35.39
"2016-04-13 01:00:00",230899,0.134,113.1,6.119,69.8,0,0,867.5336,0,-5.233,3.197,191,6.58,6.293,0,0,50.66,58.73,33.46,35.39
"2016-04-13 01:10:00",230900,0.209,108.4,6.114,70.16,0,0,867.4661,0,-5.131,3.195,192,6.564,6.293,0,0,50.66,58.67,33.46,35.37
"2016-04-13 01:20:00",230901,0.326,10.23,6.347,68.88,0.01572652,0,867.4402,0,-4.931,3.195,184,6.594,6.295,0.2464045,0.129,50.66,58.67,33.46,35.37
"2016-04-13 01:30:00",230902,0.555,9.31,5.905,70.65,0,0,867.4289,0,-5.182,3.196,187,6.645,6.29,0.07202593,0,50.66,58.67,33.46,35.37
"2016-04-13 01:40:00",230903,0.135,337.7,6.304,69.32,0,0,867.349,0,-5.383,3.197,187,6.648,6.283,0.1213068,0,50.66,58.67,33.46,35.37
"2016-04-13 01:50:00",230904,0.34,136.1,6.13,69.7,0,0,867.2,0,-4.953,3.194,178,6.616,6.28,0.01895392,0,50.66,58.67,33.46,35.37
"2016-04-13 02:00:00",230905,0.521,140.5,6.662,70.21,0.180852,0,867.1574,0,-5.273,3.191,192,6.557,6.278,0.6254795,1.028,50.66,58.67,33.46,35.37
"2016-04-13 02:10:00",230906,0.701,144.1,7.145,69.77,0.1454673,0,867.0494,0,-5.098,3.19,182,6.486,6.268,0.4283564,0.562,50.66,58.73,33.46,35.39
"2016-04-13 02:20:00",230907,0.443,127.3,6.945,70.23,0,0,867.0846,0,-5.379,3.194,183,6.474,6.273,0,0,50.66,58.67,33.46,35.37
"2016-04-13 02:30:00",230908,0.493,44.85,6.599,71.47,0,0,866.9496,0,-5.53,3.199,187,6.472,6.264,0,0,50.72,58.67,33.47,35.37
"2016-04-13 02:40:00",230909,0.429,130,6.307,73.21,0,0,866.9896,0,-5.367,3.196,178,6.471,6.265,0,0,50.66,58.67,33.46,35.37
"2016-04-13 02:50:00",230910,0.382,138.9,6.524,73.54,0,0,866.897,0,-5.133,3.193,184,6.469,6.259,0.0189517,0,50.66,58.67,33.46,35.37
"2016-04-13 03:00:00",230911,0.388,113.6,6.693,73.31,0,0,866.9012,0,-5.351,3.194,180,6.415,6.256,0.1402381,0,50.72,58.67,33.47,35.37
"2016-04-13 03:10:00",230912,0.506,94.3,6.786,73.54,0,0,866.8801,0,-5.243,3.193,194,6.389,6.244,0.1061235,0,50.72,58.67,33.47,35.37
"2016-04-13 03:20:00",230913,0.541,164.5,6.828,74.1,0,0,866.6821,0,-5.592,3.196,177,6.374,6.231,0.05305869,0,50.72,58.67,33.47,35.37
"2016-04-13 03:30:00",230914,0.519,128.3,6.827,73.89,0,0,866.6484,0,-5.497,3.196,177,6.343,6.235,0.003789838,0,50.66,58.67,33.46,35.37
"2016-04-13 03:40:00",230915,0.713,148.2,6.714,74.89,0,0,866.6295,0,-5.597,3.196,184,6.33,6.238,0,0,50.72,58.67,33.47,35.37
"2016-04-13 03:50:00",230916,0.453,139.4,6.82,74.48,0,0,866.461,0,-5.516,3.196,188,6.324,6.227,0.007579725,0,50.66,58.67,33.46,35.37
"2016-04-13 04:00:00",230917,0.659,144.5,7.06,74.23,0.01965261,0,866.3957,0,-5.51,3.193,185,6.315,6.218,0.2198068,0.161,50.66,58.67,33.46,35.37
"2016-04-13 04:10:00",230918,0.362,105.9,7.165,74.05,0,0,866.3957,0,-5.558,3.195,190,6.311,6.192,0.0530562,0,50.66,58.67,33.46,35.37
"2016-04-13 04:20:00",230919,0.414,124.5,6.876,74.26,0,0,866.3009,0,-5.379,3.194,191,6.327,6.165,0,0,50.66,58.67,33.46,35.37
"2016-04-13 04:30:00",230920,0.808,148.5,6.892,74.71,0,0,866.1472,0,-5.224,3.191,176,6.352,6.164,0.01894777,0,50.66,58.67,33.46,35.37
"2016-04-13 04:40:00",230921,0.985,158.1,7.256,74.73,0,0,866.2019,0,-5.221,3.189,188,6.372,6.136,0.2501102,0,50.66,58.67,33.46,35.37
"2016-04-13 04:50:00",230922,0.402,32.11,7.278,74.28,0,0,866.2862,0,-5.176,3.192,190,6.355,6.13,0.06442229,0,50.66,58.67,33.46,35.37
"2016-04-13 05:00:00",230923,0.622,55.72,6.706,76.26,0,0,866.1534,0,-5.48,3.196,176,6.308,6.125,0,0,50.66,58.61,33.46,35.36
"2016-04-13 05:10:00",230924,0.549,191.4,6.75,76.86,0,0,866.1703,0,-5.126,3.192,192,6.283,6.125,0,0,50.66,58.67,33.46,35.37
"2016-04-13 05:20:00",230925,0.449,112.5,6.788,77.08,0.2122355,0,866.1598,0,-5.024,3.191,189,6.244,6.125,0,0,50.66,58.61,33.46,35.36
"2016-04-13 05:30:00",230926,0.244,17.5,6.949,77.13,1.171225,0,866.1619,0,-5.122,3.19,190,6.213,6.121,0.2311622,0.155,50.72,58.61,33.47,35.36
"2016-04-13 05:40:00",230927,0.323,39.26,6.993,77.78,1.91012,0,866.2798,0,-4.999,3.191,194,6.213,6.093,0.4130603,0.233,50.66,58.67,33.46,35.37
"2016-04-13 05:50:00",230928,0.732,24.04,6.846,79.68,5.156537,0,866.2188,0,-5.326,3.193,190,6.213,6.073,0.8299102,0.16,50.66,58.61,33.46,35.36
"2016-04-13 06:00:00",230929,0.425,76.26,6.851,80.2,5.824685,0,866.244,0,-5.63,3.196,192,6.213,6.058,0.9473861,0.157,50.66,58.61,33.46,35.36
"2016-04-13 06:10:00",230930,0.552,154.7,6.942,80.5,10.85545,0,866.1619,0,-5.021,3.189,193,6.213,6.04,2.300253,0.213,50.66,58.61,33.46,35.36
"2016-04-13 06:20:00",230931,0.483,189.8,7.145,79.51,16.42467,0,866.1619,0,-5.122,3.19,190,6.213,6.044,3.107426,0.188,50.66,58.61,33.46,35.36
"2016-04-13 06:30:00",230932,0.932,182.5,7.13,80.3,21.03883,0,866.1387,0,-5.098,3.19,195,6.213,6.04,3.751649,0.178,50.66,58.61,33.46,35.36
"2016-04-13 06:40:00",230933,0.928,149.6,7.143,81.4,33.09301,0,866.1198,0,-5.121,3.189,195,6.213,6.04,5.752528,0.175,50.72,58.61,33.47,35.36
"2016-04-13 06:50:00",230934,1.149,157.6,7.629,78.41,65.88733,0,865.9029,0,-4.658,3.181,206,6.213,6.04,11.52779,0.174,50.66,58.61,33.46,35.36
"2016-04-13 07:00:00",230935,1.107,145.6,8.1,75.55,74.50645,0,865.886,0,-5.416,3.187,189,6.213,6.04,12.25918,0.164,50.66,58.67,33.46,35.37
"2016-04-13 07:10:00",230936,0.787,129.2,8.07,75.78,52.75624,0,865.8881,0,-5.367,3.187,177,6.213,6.04,7.723092,0.146,50.66,58.67,33.46,35.37
"2016-04-13 07:20:00",230937,0.687,146.7,8.12,75.28,71.35828,0,865.8102,0,-4.756,3.18,187,6.213,6.04,10.67136,0.149,50.66,58.67,33.46,35.37
"2016-04-13 07:30:00",230938,0.709,170.2,8.33,73.71,64.16586,0,865.8502,0,-5.209,3.183,187,6.213,6.04,9.3147,0.144,50.66,58.67,33.46,35.37
"2016-04-13 07:40:00",230939,0.431,99.8,8.37,73.88,42.62789,0,865.8903,0,-5.187,3.184,193,6.213,6.04,5.66158,0.132,50.66,58.61,33.46,35.36
"2016-04-13 07:50:00",230940,0.252,347.3,8.16,75.62,39.47187,0,865.926,0,-5.292,3.187,188,6.213,6.04,5.149991,0.13,50.66,58.67,33.46,35.37
"2016-04-13 08:00:00",230941,0.747,145.1,7.963,77.08,70.57224,0,865.8544,0,-5.164,3.185,188,6.213,6.04,9.818709,0.137,50.66,58.61,33.46,35.36
"2016-04-13 08:10:00",230942,0.769,148.1,7.991,77.63,63.81214,0,865.6522,0,-5.164,3.185,189,6.213,6.04,9.254067,0.145,50.66,58.67,33.46,35.37
"2016-04-13 08:20:00",230943,0.284,179.8,8.09,78.66,58.79316,0,865.7343,0,-4.352,3.177,298,6.217,6.04,8.90164,0.152,50.66,58.67,33.46,35.37
"2016-04-13 08:30:00",230944,0.504,183.7,8.07,78.29,46.33022,0,865.8565,0,-5.468,3.188,211,6.21,6.04,7.116765,0.155,50.66,58.67,33.46,35.37
"2016-04-13 08:40:00",230945,0.412,29.6,7.823,80.6,33.10481,0,865.8038,0,-4.611,3.182,250,6.231,6.04,4.733141,0.143,50.66,58.61,33.46,35.36
"2016-04-13 08:50:00",230946,0.706,131.3,7.604,82.6,106.8252,0,865.4669,0,-4.913,3.184,200,6.283,6.04,16.13967,0.149,50.66,58.61,33.46,35.36
"2016-04-13 09:00:00",230947,0.795,153.3,7.868,80.5,138.1064,0,865.45,0,-4.758,3.181,195,6.325,6.04,20.78565,0.149,50.66,58.67,33.46,35.37
"2016-04-13 09:10:00",230948,0.556,8.62,8.14,80.8,100.9455,0,865.7238,0,-4.807,3.181,195,6.301,6.04,14.65417,0.145,50.66,58.67,33.46,35.37
"2016-04-13 09:20:00",230949,0.659,43.14,7.988,82.9,140.8536,0,865.6585,0,-4.887,3.183,204,6.299,6.04,20.77049,0.146,50.66,58.61,33.46,35.36
"2016-04-13 09:30:00",230950,0.625,55.93,7.953,84,133.0441,0,865.4479,0,-4.505,3.179,202,6.298,6.04,19.55784,0.147,50.66,58.61,33.46,35.36
"2016-04-13 09:40:00",230951,0.637,45.09,8.05,84.9,129.7702,0,865.3889,0,-4.582,3.18,198,6.27,6.04,18.81888,0.144,50.66,58.61,33.46,35.36
"2016-04-13 09:50:00",230952,0.385,350.1,7.837,86.7,58.0975,0,865.5258,0,-4.457,3.18,196,6.265,6.04,7.480561,0.127,50.66,58.61,33.46,35.36
"2016-04-13 10:00:00",230953,0.394,4.38,7.591,88.7,39.53083,0,865.6143,0,-4.612,3.183,194,6.26,6.04,4.687666,0.118,50.66,58.61,33.46,35.36
"2016-04-13 10:10:00",230954,0.253,320.9,7.337,92,37.66787,0,865.6416,0,-4.285,3.181,224,6.318,6.044,4.380713,0.114,50.66,58.61,33.46,35.36
"2016-04-13 10:20:00",230955,0.479,61.11,7.325,95.7,85.79423,0,865.669,0,-4.511,3.182,197,6.401,6.063,11.83854,0.137,50.66,58.61,33.46,35.36
"2016-04-13 10:30:00",230956,0.256,71.36,7.603,90.5,57.111,0,865.6437,0,-4.559,3.181,192,6.386,6.052,7.601827,0.133,50.66,58.61,33.46,35.36
"2016-04-13 10:40:00",230957,0.892,128.2,7.891,82.7,83.29064,0,865.5195,0,-4.503,3.178,197,6.386,6.017,12.07728,0.143,50.61,58.61,33.45,35.36
"2016-04-13 10:50:00",230958,1.045,152.6,8.28,78.54,100.7529,0,865.3848,0,-4.501,3.177,202,6.386,6.037,14.28658,0.142,50.66,58.61,33.46,35.36
"2016-04-13 11:00:00",230959,0.347,18.18,8.25,80.8,76.69955,0,865.3848,0,-4.353,3.177,192,6.44,6.031,10.18251,0.133,50.66,58.61,33.46,35.36
"2016-04-13 11:10:00",230960,0.234,307.3,8.03,85.2,84.67017,0,865.3806,0,-4.431,3.179,184,6.504,6.033,11.15642,0.131,50.61,58.61,33.45,35.36
"2016-04-13 11:20:00",230961,0.253,52.74,7.961,89.5,89.02885,0,865.2815,0,-4.604,3.179,201,6.475,6.047,11.9977,0.134,50.61,58.61,33.45,35.36
"2016-04-13 11:30:00",230962,0.386,100.3,8.05,89.6,151.5857,0,865.0557,0,-4.375,3.177,196,6.47,6.039,21.17956,0.14,50.66,58.61,33.46,35.36
"2016-04-13 11:40:00",230963,0.698,132.8,8.35,87.7,322.1819,0,864.6923,0,-4.24,3.172,226,6.455,6.037,47.67576,0.146,50.61,58.61,33.45,35.36
"2016-04-13 11:50:00",230964,0.571,106.9,8.74,83.7,337.6138,0,864.6571,0,-4.902,3.179,190,6.436,6.038,48.65749,0.144,50.66,58.61,33.46,35.36
"2016-04-13 12:00:00",230965,0.656,141.1,8.82,82.7,239.5124,0,864.5529,0,-5.404,3.183,189,6.524,6.036,34.40859,0.144,50.61,58.61,33.45,35.36
"2016-04-13 12:10:00",230966,0.675,107.4,8.6,85.1,247.5272,0,864.59,0,-5.192,3.182,202,6.54,6.024,35.62349,0.143,50.61,58.61,33.45,35.36
"2016-04-13 12:20:00",230967,0.675,92.4,8.23,87.6,136.8332,0,864.587,0,-5.023,3.183,201,6.498,5.994,18.42542,0.134,50.61,58.61,33.45,35.36
"2016-04-13 12:30:00",230968,0.339,86.8,8.1,92.1,103.1532,0,864.5698,0,-5.167,3.185,187,6.485,5.967,14.1538,0.135,50.61,58.61,33.45,35.36
"2016-04-13 12:40:00",230969,0.392,115,8.33,90.9,260.1377,0,864.5468,0,-4.723,3.177,202,6.53,5.955,38.28118,0.147,50.66,58.61,33.46,35.36
"2016-04-13 12:50:00",230970,0.517,81,8.38,85,235.1097,0,864.3677,0,-4.323,3.176,233,6.538,5.951,34.35967,0.145,50.66,58.61,33.46,35.36
"2016-04-13 13:00:00",230971,0.948,129.2,8.21,84.3,205.5354,0,864.2609,0,-5.542,3.189,197,6.49,5.95,28.86275,0.14,50.61,58.61,33.45,35.36
"2016-04-13 13:10:00",230972,0.737,137.9,8.01,83.7,163.4128,0,864.2587,0,-5.06,3.184,209,6.59,5.949,22.34691,0.136,50.61,58.61,33.45,35.36
"2016-04-13 13:20:00",230973,0.434,110.1,8.07,83.6,108.2857,0,864.263,0,-4.832,3.182,201,6.64,5.949,13.90288,0.121,50.61,58.56,33.45,35.35
"2016-04-13 13:30:00",230974,0.232,273.2,7.879,83.7,57.30761,0,864.13,0,-4.732,3.182,203,6.612,5.949,6.261981,0.109,50.61,58.56,33.45,35.35
"2016-04-13 13:40:00",230975,0.4,140.1,7.929,83.5,179.2346,0,863.8135,0,-6.352,3.196,200,6.66,5.949,26.54428,0.144,50.61,58.56,33.45,35.35
"2016-04-13 13:50:00",230976,0.569,118.1,8.51,79.79,396.5721,0,863.4913,0,-5.126,3.18,184,6.704,5.949,59.65739,0.15,50.61,58.61,33.45,35.36
"2016-04-13 14:00:00",230977,0.396,351.6,8.85,77.28,157.7197,0,863.6428,0,-4.721,3.177,185,6.688,5.949,20.84296,0.126,50.55,58.61,33.43,35.36
"2016-04-13 14:10:00",230978,0.218,276.6,8.4,80.1,69.11018,0,863.7376,0,-4.726,3.179,176,6.752,5.949,7.292386,0.097,50.55,58.56,33.43,35.35
"2016-04-13 14:20:00",230979,0.571,149.4,8.34,79.56,176.28,0,863.4997,0,-5.259,3.184,190,6.794,5.949,24.49863,0.133,50.55,58.56,33.43,35.35
"2016-04-13 14:30:00",230980,0.372,64.03,8.65,77.06,194.2903,0,863.3691,0,-4.922,3.178,184,6.835,5.949,27.80956,0.143,50.55,58.61,33.43,35.36
"2016-04-13 14:40:00",230981,1.059,151.1,8.99,72.5,236.0943,0,863.1312,0,-5.022,3.178,188,6.855,5.94,34.84813,0.147,50.61,58.56,33.45,35.35
"2016-04-13 14:50:00",230982,0.761,123.1,9.03,70.78,117.3891,0,862.9564,0,-4.716,3.175,191,6.889,5.939,15.95612,0.134,50.61,58.56,33.45,35.35
"2016-04-13 15:00:00",230983,0.807,139.4,9.09,68.6,90.19289,0,862.7964,0,-4.84,3.175,187,6.859,5.948,12.14514,0.134,50.55,58.56,33.43,35.35
"2016-04-13 15:10:00",230984,0.373,183.6,9.15,68.72,83.04614,0,862.8428,0,-4.79,3.175,178,6.853,5.949,11.08821,0.133,50.55,58.56,33.43,35.35
"2016-04-13 15:20:00",230985,0.368,1.841,9.07,70.38,81.91068,0,862.9586,0,-4.692,3.175,182,6.961,5.951,10.92911,0.133,50.55,58.56,33.43,35.35
"2016-04-13 15:30:00",230986,0.274,355.1,8.92,72.38,63.79823,0,862.9754,0,-4.974,3.179,175,6.988,5.952,7.8682,0.121,50.55,58.56,33.43,35.35
"2016-04-13 15:40:00",230987,0.071,275.5,8.67,73.65,45.37148,0,862.8933,0,-4.979,3.181,175,6.968,5.948,5.023222,0.108,50.55,58.56,33.43,35.35
"2016-04-13 15:50:00",230988,0.212,179.9,8.66,73.4,61.40944,0,862.8743,0,-5.026,3.18,187,7.01,5.951,7.54241,0.122,50.55,58.56,33.43,35.35
"2016-04-13 16:00:00",230989,0.264,108.1,8.85,71.3,91.10835,0,862.7712,0,-5.227,3.181,179,7.034,5.948,12.42926,0.136,50.55,58.56,33.43,35.35
"2016-04-13 16:10:00",230990,0.32,14.31,8.85,70.13,33.4707,0,862.7669,0,-5.202,3.181,188,7.074,5.94,3.644299,0.105,50.55,58.56,33.43,35.35
"2016-04-13 16:20:00",230991,0.146,353.7,8.56,73.22,19.53865,0,862.7754,0,-5.058,3.183,189,7.07,5.95,1.621372,0.081,50.55,58.56,33.43,35.35
"2016-04-13 16:30:00",230992,0.008,260.1,8.08,76.2,19.24398,0,862.7964,0,-5.137,3.185,187,7.05,5.946,1.77669,0.092,50.55,58.56,33.43,35.35
"2016-04-13 16:40:00",230993,0.172,357.5,7.988,78.44,27.26296,0,862.6765,0,-5.544,3.19,177,7.052,5.96,3.390486,0.123,50.55,58.56,33.43,35.35
"2016-04-13 16:50:00",230994,0.315,85.7,7.895,78.88,33.05423,0,862.6334,0,-4.631,3.181,189,7.043,5.979,4.973975,0.153,50.55,58.5,33.43,35.33
"2016-04-13 17:00:00",230995,0.543,32.77,7.806,79.31,18.70201,0,862.5168,0,-4.564,3.182,196,7.045,5.996,3.526904,0.19,50.55,58.56,33.43,35.35
"2016-04-13 17:10:00",230996,0.884,19.96,7.279,88.3,19.6022,0,862.5283,0,-4.517,3.184,194,7.055,6.034,3.140571,0.161,50.55,58.56,33.43,35.35
"2016-04-13 17:20:00",230997,0.637,6.731,7.137,91.4,16.89911,0,862.5534,0,-4.447,3.183,193,7.077,6.043,3.019366,0.179,50.55,58.56,33.43,35.35
"2016-04-13 17:30:00",230998,0.05,193.5,7.347,88.6,12.28721,0,862.5577,0,-4.582,3.183,189,7.096,6.07,2.530841,0.208,50.5,58.5,33.42,35.33
"2016-04-13 17:40:00",230999,0,0,7.379,88.6,9.836058,0,862.5372,0,-4.776,3.185,193,7.123,6.097,2.140778,0.218,50.5,58.5,33.42,35.33
"2016-04-13 17:50:00",231000,0.045,9.73,7.259,93,6.472754,0,862.4921,0,-4.863,3.187,194,7.145,6.165,1.515719,0.237,50.55,58.5,33.43,35.33
"2016-04-13 18:00:00",231001,0.171,303.2,6.925,98.8,4.539374,0,862.3452,0,-4.869,3.189,193,7.159,6.162,0.9511532,0.215,50.55,58.56,33.43,35.35
"2016-04-13 18:10:00",231002,0.198,290.1,6.766,100,2.024082,0,862.3511,0,-4.72,3.188,214,7.163,6.178,0.4888474,0.241,50.5,58.56,33.42,35.35
"2016-04-13 18:20:00",231003,0.434,335.6,6.596,100,1.13978,0,862.1894,0,-4.773,3.19,198,7.164,6.195,0.2993731,0.184,50.5,58.5,33.42,35.33
"2016-04-13 18:30:00",231004,0.266,292.2,6.498,100,0,0,862.2969,0,-4.824,3.191,196,7.165,6.182,0.09473849,0,50.5,58.5,33.42,35.33
"2016-04-13 18:40:00",231005,0.224,289.4,6.411,100,0,0,862.3495,0,-4.774,3.191,187,7.172,6.17,0.09473852,0,50.5,58.5,33.42,35.33
"2016-04-13 18:50:00",231006,0.374,338.6,6.337,100,0,0,862.1683,0,-5.229,3.195,189,7.202,6.156,0.1477921,0,50.5,58.5,33.42,35.33
"2016-04-13 19:00:00",231007,0.062,324.3,6.36,100,0,0,862.2168,0,-4.875,3.192,193,7.239,6.142,0.4433763,0,50.5,58.5,33.42,35.33
"2016-04-13 19:10:00",231008,0.33,101.3,6.279,100,0,0,861.9514,0,-4.699,3.191,176,7.23,6.135,0.3827437,0,50.5,58.5,33.42,35.33
"2016-04-13 19:20:00",231009,0.533,63.52,6.258,100,0,0,861.8461,0,-4.875,3.192,195,7.151,6.134,0.4547449,0,50.5,58.5,33.42,35.33
"2016-04-13 19:30:00",231010,0.347,97.4,6.271,100,0,0,861.783,0,-5.129,3.195,177,7.087,6.126,0.4433763,0,50.5,58.5,33.42,35.33
"2016-04-13 19:40:00",231011,0.2,288.2,6.269,100,0,0,861.5934,0,-4.774,3.191,204,7.078,6.126,0.3751645,0,50.5,58.5,33.42,35.33
"2016-04-13 19:50:00",231012,0.278,95.1,6.317,100,0,0,861.427,0,-5.583,3.199,189,7.078,6.126,0.4357972,0,50.44,58.5,33.41,35.33
"2016-04-13 20:00:00",231013,0.259,326.5,6.427,100,0,0,861.288,0,-4.771,3.189,193,7.078,6.126,0.5267462,0,50.5,58.44,33.42,35.32
"2016-04-13 20:10:00",231014,0.185,329.5,6.632,100,0,0,861.3365,0,-5.38,3.196,172,7.083,6.126,0.5153776,0,50.5,58.5,33.42,35.33
"2016-04-13 20:20:00",231015,0.213,353.3,6.477,100,0,0,861.3407,0,-4.723,3.19,195,7.116,6.139,0.3448482,0,50.44,58.5,33.41,35.33
"2016-04-13 20:30:00",231016,0.307,353.4,6.27,100,0,0,861.2142,0,-4.623,3.19,196,7.075,6.143,0,0,50.5,58.5,33.42,35.33
"2016-04-13 20:40:00",231017,0.308,316.3,6.221,100,0,0,860.9404,0,-4.497,3.189,204,7.013,6.19,0.1288444,0,50.5,58.5,33.42,35.33
"2016-04-13 20:50:00",231018,0.304,297.2,6.274,100,0,0,860.8984,0,-4.851,3.192,188,6.992,6.22,0.2538992,0,50.5,58.5,33.42,35.33
"2016-04-13 21:00:00",231019,0.409,328.2,6.29,100,0,0,861.1342,0,-4.648,3.19,202,6.992,6.255,0.1705294,0,50.5,58.5,33.42,35.33
"2016-04-13 21:10:00",231020,0.284,112.1,6.256,100,0,0,860.871,0,-4.825,3.192,199,6.992,6.275,0.007579082,0,50.5,58.5,33.42,35.33
"2016-04-13 21:20:00",231021,0.572,138.1,6.625,100,0.09432681,0,860.3655,0,-4.36,3.181,192,6.993,6.295,0.693486,0.597,50.44,58.5,33.41,35.33
"2016-04-13 21:30:00",231022,0.862,148.5,8.06,97.2,0.3733769,0,860.1633,0,-4.807,3.181,193,6.993,6.29,1.671188,3.16,50.5,58.44,33.42,35.32
"2016-04-13 21:40:00",231023,0.754,291,7.88,94.1,0.2436776,0,860.2138,0,-5.071,3.189,194,6.997,6.266,0.6783278,1.243,50.5,58.44,33.42,35.32
"2016-04-13 21:50:00",231024,0.705,317.8,6.856,100,0,0,859.9611,0,-4.899,3.191,201,7.032,6.261,0,0,50.44,58.44,33.41,35.32
"2016-04-13 22:00:00",231025,0.407,255.6,6.451,100,0,0,859.7863,0,-4.925,3.192,202,7.034,6.266,0,0,50.5,58.44,33.42,35.32
"2016-04-13 22:10:00",231026,0.651,287.1,6.338,100,0,0,859.8516,0,-4.976,3.193,204,6.991,6.271,0,0,50.5,58.44,33.42,35.32
"2016-04-13 22:20:00",231027,0.386,280.5,6.175,100,0,0,859.881,0,-4.977,3.194,204,6.959,6.267,0,0,50.5,58.44,33.42,35.32
"2016-04-13 22:30:00",231028,0.44,271,6.064,100,0,0,859.841,0,-5.534,3.2,177,6.905,6.261,0,0,50.5,58.44,33.42,35.32
"2016-04-13 22:40:00",231029,0.419,349.2,6.061,100,0,0,859.881,0,-6.848,3.213,179,6.905,6.26,0,0,50.55,58.44,33.43,35.32
"2016-04-13 22:50:00",231030,0.502,212.6,6.053,100,0,0,860.1674,1,-5.356,3.198,200,6.905,6.261,0,0,50.5,58.44,33.42,35.32
"2016-04-13 23:00:00",231031,0.448,3.571,6.07,100,0,0,860.3613,1.5,-5.231,3.197,197,6.934,6.258,0.03410587,0,50.5,58.44,33.42,35.32
"2016-04-13 23:10:00",231032,0.217,83.7,6.06,100,0,0,860.3276,1.5,-5.332,3.198,204,6.979,6.254,0,0,50.66,58.44,33.46,35.32
"2016-04-13 23:20:00",231033,0.5,159.9,6.094,100,0,0,860.119,1,-5.18,3.196,177,6.989,6.253,0.1174758,0,51.33,58.44,33.62,35.32
"2016-04-13 23:30:00",231034,0.943,277.3,6.153,100,0,0,860.3086,1,-4.977,3.194,191,6.943,6.248,0.03789541,0,52.27,58.44,33.85,35.32
"2016-04-13 23:40:00",231035,0.789,154.5,6.233,100,0,0,860.1906,1.5,-5.052,3.194,180,6.85,6.235,0.1061071,0,53.05,58.56,34.04,35.35
"2016-04-13 23:50:00",231036,0.538,90.5,6.244,100,0,0,860.3002,1.5,-5.255,3.196,180,6.82,6.237,0.1477921,0,53.61,58.73,34.18,35.39
